STARLINK-31872 (59922 NORAD) Tracking and Keplerian Element Data

This shows tracking and keplerian element data for the satellite.

Feedback or suggestion? Click here.




ElementValue
Catalog59922
NameSTARLINK-31872
Epoch Orbit3952
Epoch Day35.10566613
Epoch Year2025
RAAN67.9204
Inclination43.0048
Eccentricity8.18E-05
Argument of Perigee260.7087
Mean Anonmoly99.3677
Mean Motion15.40707861
Decay Rate-1.544E-05
L11 59922U 24106A 25035.10566613 -.00001544 00000+0 -29705-4 0 9995
L22 59922 43.0048 67.9204 0000818 260.7087 99.3677 15.40707861 39522



Live tracking and technical data element details for STARLINK-31872 (NORAD 59922). STARLINK-31872 can be tracked NOW for your location showing map with azimuth and elevation plus other details from your city location.







IsCatalogInMostPopularTable: catalog: 59922, numindb: 81
Update: records affected: 1



GetName: 59922 STARLINK-31872

Hit Count: updated at: Mon, 23 Jun 2025 12:31:19 GMT